Location: Brantley
(31.5822°N, 86.2569°W)
Time: 20:39:29
(UTC+00:00)

Vanguard 1 - Visible Passes

Search period start: 18 February 2026 00:00
Search period end: 28 February 2026 00:00
Orbit: 652 x 3819 km, 34.3° (Epoch: 17 February)

Date Brightness Start Highest point End Pass type
(mag) Time Alt. Az. Time Alt. Az. Time Alt. Az.
18 Feb 12.7 00:00:19 10° W 00:16:15 84° N 00:38:11 14° E visible
18 Feb 12.8 02:23:20 10° WNW 02:43:36 70° SSW 02:50:47 54° SSE visible
18 Feb 13.6 04:49:57 10° W 05:03:23 31° WSW 05:03:23 31° WSW visible
19 Feb 12.7 00:19:55 10° WNW 00:36:21 88° NNE 00:56:45 18° ESE visible
19 Feb 12.9 02:43:09 10° WNW 03:03:20 62° SSW 03:09:22 52° S visible
19 Feb 13.8 05:11:18 10° W 05:21:58 23° WSW 05:21:58 23° WSW visible
20 Feb 12.7 00:39:31 10° WNW 00:56:23 86° SSW 01:15:25 21° ESE visible
20 Feb 13.1 03:03:05 10° WNW 03:22:57 53° SW 03:28:02 48° S visible
20 Feb 14.0 05:33:45 10° W 05:40:39 17° WSW 05:40:39 17° WSW visible
21 Feb 12.8 00:59:06 10° WNW 01:16:20 79° SSW 01:34:10 24° ESE visible
21 Feb 13.2 03:23:15 10° WNW 03:42:27 44° SW 03:46:48 41° SSW visible
21 Feb 14.2 05:59:02 10° WSW 05:59:25 10° WSW 05:59:25 10° WSW visible
22 Feb 12.8 01:18:43 10° WNW 01:36:11 70° SSW 01:53:03 25° SE visible
22 Feb 13.4 03:43:45 10° W 04:01:53 35° SW 04:05:40 34° SSW visible
23 Feb 13.0 01:38:23 10° WNW 01:55:57 62° SSW 02:12:01 25° SE visible
23 Feb 13.7 04:04:49 10° W 04:21:16 27° SW 04:24:40 26° SSW visible
23 Feb 12.6 23:35:53 10° WNW 23:49:46 86° SSW 00:12:42 10° ESE visible
24 Feb 13.1 01:58:12 10° WNW 02:15:39 52° SW 02:31:08 24° SSE visible
24 Feb 13.9 04:26:53 10° W 04:40:41 20° SW 04:43:48 20° SW visible
24 Feb 12.7 23:55:22 10° WNW 00:09:37 78° SSW 00:32:36 10° ESE visible
25 Feb 13.3 02:18:13 10° W 02:35:17 43° SW 02:50:23 22° SSE visible
25 Feb 14.1 04:51:11 10° WSW 05:00:10 14° SW 05:03:04 13° SW visible
26 Feb 12.8 00:14:52 10° WNW 00:29:24 70° SSW 00:52:14 10° SE visible
26 Feb 13.6 02:38:34 10° W 02:54:54 35° SW 03:09:46 18° S visible
27 Feb 12.9 00:34:27 10° WNW 00:49:10 60° SSW 01:11:33 10° SE visible
27 Feb 13.8 02:59:27 10° W 03:14:30 27° SW 03:29:16 14° S visible
